MTI 1 26102U 00014A 21104.24340396 .00007804 00000-0 98501-4 0 9991 2 26102 97.4716 7.4610 0005928 179.8309 180.2950 15.59859411171334 CFESAT 1 30777U 07006F 21103.68631831 .00006189 00000-0 15589-3 0 9995 2 30777 35.4241 193.8328 0004031 34.0521 326.0464 15.39273189782697 SPIRALE A 1 33751U 09008C 21101.76152846 .00000081 00000-0 60188-3 0 9995 2 33751 2.0423 298.5099 5382497 161.6597 229.1220 4.58783507174981 SPIRALE B 1 33752U 09008D 21102.66259152 .00005691 00000-0 10472-2 0 9996 2 33752 2.1440 349.5919 6909532 47.9749 352.8124 2.76947016113076 SAPPHIRE 1 39088U 13009C 21104.09846169 -.00000016 00000-0 95269-5 0 9996 2 39088 98.4515 305.0804 0012504 110.7869 249.4657 14.34238687425594